Location: Unspecified
(41.9000°N, 12.4830°E)
Time: 17:58:36
(UTC+02:00)

ISS - Pass Details

Date: 20 September 2017
Orbit: 401 x 407 km, 51.6° (Epoch: 25 September)

Event Time Altitude Azimuth Distance (km) Brightness Sun altitude
Exits shadow 05:48:52 23° 275° (W) 913 -2.6 -13.1°
Maximum altitude 05:50:24 38° 222° (SW) 631 -3.3 -12.8°
Drops below altitude 10° 05:53:29 10° 152° (SSE) 1,460 -0.8 -12.2°
Sets 05:55:37 0° 144° (SE) 2,316 0.3 -11.8°
